Location: Ayer Observatory
(42.2600°N, 71.0700°W)
Time: 12:13:21
(UTC-04:00)

STARS - Visible Passes

Search period start: 19 July 2019 00:00
Search period end: 29 July 2019 00:00
Orbit: 624 x 641 km, 98.3° (Epoch: 19 July)

Date Brightness Start Highest point End Pass type
(mag) Time Alt. Az. Time Alt. Az. Time Alt. Az.
19 Jul ? 20:52:02 10° N 20:56:24 76° WNW 21:00:46 10° SSW visible
20 Jul ? 21:13:15 10° N 21:17:25 45° WNW 21:21:35 10° SW visible
21 Jul ? 21:34:39 10° N 21:38:23 28° WNW 21:42:06 10° SW visible
22 Jul ? 21:56:21 10° NNW 21:59:16 18° WNW 22:02:12 10° WSW visible
23 Jul ? 20:40:01 10° NNE 20:44:26 79° ESE 20:48:49 10° S visible
23 Jul ? 22:18:48 10° NW 22:20:06 11° WNW 22:21:24 10° WNW visible
24 Jul ? 21:01:09 10° N 21:05:29 62° WNW 21:09:49 10° SSW visible
25 Jul ? 21:22:26 10° N 21:26:29 37° WNW 21:30:31 10° SW visible
26 Jul ? 21:43:56 10° NNW 21:47:25 23° WNW 21:50:53 10° WSW visible
27 Jul ? 22:05:48 10° NNW 22:08:17 15° WNW 22:10:46 10° W visible
28 Jul ? 20:49:07 10° NNE 20:53:32 85° WNW 20:57:56 10° SSW visible
